Time,TemperatureF,DewpointF,PressureIn,WindDirection,WindDirectionDegrees,WindSpeedMPH,WindSpeedGustMPH,Humidity,HourlyPrecipIn,Conditions,Clouds,dailyrainin,SoftwareType,DateUTC
2013-06-03 00:02:00,59.0,30.0,29.82,SSW,205,9.0,-999.0,33,-99.99,,,-99.99,,2013-06-03 06:02:00,
2013-06-03 00:12:00,59.0,30.0,29.82,SSW,205,9.0,-999.0,33,-99.99,,,-99.99,,2013-06-03 06:12:00,
2013-06-03 00:22:00,57.0,28.0,29.82,SW,228,9.0,-999.0,33,-99.99,,,-99.99,,2013-06-03 06:22:00,
2013-06-03 00:31:00,57.0,30.0,29.81,South,186,8.0,-999.0,36,-99.99,,,-99.99,,2013-06-03 06:31:00,
2013-06-03 00:42:00,57.0,30.0,29.81,South,186,8.0,-999.0,36,-99.99,,,-99.99,,2013-06-03 06:42:00,
2013-06-03 00:52:00,56.0,30.0,29.82,SSW,201,8.0,-999.0,37,-99.99,,,-99.99,,2013-06-03 06:52:00,
2013-06-03 01:02:00,55.0,35.0,29.82,SSW,206,7.0,-999.0,46,-99.99,,,-99.99,,2013-06-03 07:02:00,
2013-06-03 01:11:00,55.0,35.0,29.82,SSW,206,7.0,-999.0,46,-99.99,,,-99.99,,2013-06-03 07:11:00,
2013-06-03 01:22:00,54.0,35.0,29.85,South,169,8.0,-999.0,49,-99.99,,,-99.99,,2013-06-03 07:22:00,
2013-06-03 01:31:00,53.0,36.0,29.86,SSE,162,7.0,-999.0,52,-99.99,,,-99.99,,2013-06-03 07:31:00,
2013-06-03 01:42:00,53.0,36.0,29.86,SSE,162,7.0,-999.0,52,-99.99,,,-99.99,,2013-06-03 07:42:00,
2013-06-03 01:52:00,53.0,36.0,29.87,South,184,10.0,-999.0,53,-99.99,,,-99.99,,2013-06-03 07:52:00,
2013-06-03 02:01:00,53.0,35.0,29.88,WSW,242,8.0,-999.0,51,-99.99,,,-99.99,,2013-06-03 08:01:00,
2013-06-03 02:11:00,53.0,35.0,29.88,WSW,242,8.0,-999.0,51,-99.99,,,-99.99,,2013-06-03 08:11:00,
2013-06-03 02:21:00,52.0,35.0,29.88,SW,216,7.0,-999.0,53,-99.99,,,-99.99,,2013-06-03 08:21:00,
2013-06-03 02:32:00,50.0,35.0,29.88,SSW,211,7.0,-999.0,56,-99.99,,,-99.99,,2013-06-03 08:32:00,
2013-06-03 02:41:00,50.0,35.0,29.88,SSW,211,7.0,-999.0,56,-99.99,,,-99.99,,2013-06-03 08:41:00,
2013-06-03 02:52:00,49.0,35.0,29.88,WSW,246,4.0,-999.0,58,-99.99,,,-99.99,,2013-06-03 08:52:00,
2013-06-03 03:02:00,49.0,33.0,29.88,SW,219,5.0,-999.0,53,-99.99,,,-99.99,,2013-06-03 09:02:00,
2013-06-03 03:11:00,49.0,33.0,29.88,SW,219,5.0,-999.0,53,-99.99,,,-99.99,,2013-06-03 09:11:00,
2013-06-03 03:21:00,48.0,35.0,29.88,SSW,200,3.0,-999.0,61,-99.99,,,-99.99,,2013-06-03 09:21:00,
2013-06-03 03:33:00,46.0,34.0,29.88,South,190,2.0,-999.0,62,-99.99,,,-99.99,,2013-06-03 09:33:00,
2013-06-03 03:42:00,46.0,34.0,29.88,South,190,2.0,-999.0,62,-99.99,,,-99.99,,2013-06-03 09:42:00,
2013-06-03 03:52:00,44.0,33.0,29.88,SSE,165,2.0,-999.0,66,-99.99,,,-99.99,,2013-06-03 09:52:00,
2013-06-03 04:02:00,44.0,34.0,29.88,SSW,196,3.0,-999.0,68,-99.99,,,-99.99,,2013-06-03 10:02:00,
2013-06-03 04:12:00,43.0,34.0,29.88,South,169,3.0,-999.0,69,-99.99,,,-99.99,,2013-06-03 10:12:00,
2013-06-03 04:22:00,43.0,34.0,29.88,South,169,3.0,-999.0,69,-99.99,,,-99.99,,2013-06-03 10:22:00,
2013-06-03 04:32:00,44.0,34.0,29.89,South,188,5.0,-999.0,67,-99.99,,,-99.99,,2013-06-03 10:32:00,
2013-06-03 04:42:00,44.0,34.0,29.89,South,188,5.0,-999.0,67,-99.99,,,-99.99,,2013-06-03 10:42:00,
2013-06-03 04:52:00,42.0,33.0,29.90,SSE,157,2.0,-999.0,70,-99.99,,,-99.99,,2013-06-03 10:52:00,
2013-06-03 05:02:00,41.0,32.0,29.90,SSE,155,5.0,-999.0,71,-99.99,,,-99.99,,2013-06-03 11:02:00,
2013-06-03 05:12:00,41.0,32.0,29.90,SSE,155,5.0,-999.0,71,-99.99,,,-99.99,,2013-06-03 11:12:00,
2013-06-03 05:22:00,41.0,32.0,29.91,SSE,159,2.0,-999.0,69,-99.99,,,-99.99,,2013-06-03 11:22:00,
2013-06-03 05:32:00,42.0,31.0,29.90,SSE,154,4.0,-999.0,65,-99.99,,,-99.99,,2013-06-03 11:32:00,
2013-06-03 05:42:00,42.0,31.0,29.90,SSE,154,4.0,-999.0,65,-99.99,,,-99.99,,2013-06-03 11:42:00,
2013-06-03 05:52:00,41.0,30.0,29.93,SSE,150,4.0,-999.0,64,-99.99,,,-99.99,,2013-06-03 11:52:00,
2013-06-03 06:01:00,41.0,30.0,29.94,SSE,157,4.0,-999.0,65,-99.99,,,-99.99,,2013-06-03 12:01:00,
2013-06-03 06:11:00,41.0,30.0,29.94,SSE,157,4.0,-999.0,65,-99.99,,,-99.99,,2013-06-03 12:11:00,
2013-06-03 06:21:00,41.0,31.0,29.94,SE,128,4.0,-999.0,66,-99.99,,,-99.99,,2013-06-03 12:21:00,
2013-06-03 06:32:00,40.0,30.0,29.95,SSE,165,3.0,-999.0,66,-99.99,,,-99.99,,2013-06-03 12:32:00,
2013-06-03 06:42:00,40.0,30.0,29.95,SSE,165,3.0,-999.0,66,-99.99,,,-99.99,,2013-06-03 12:42:00,
2013-06-03 06:52:00,43.0,30.0,29.96,SSW,209,4.0,-999.0,61,-99.99,,,-99.99,,2013-06-03 12:52:00,
2013-06-03 07:02:00,44.0,31.0,29.96,South,187,3.0,-999.0,60,-99.99,,,-99.99,,2013-06-03 13:02:00,
2013-06-03 07:11:00,44.0,31.0,29.96,South,187,3.0,-999.0,60,-99.99,,,-99.99,,2013-06-03 13:11:00,
2013-06-03 07:22:00,46.0,30.0,29.96,SSW,200,6.0,-999.0,54,-99.99,,,-99.99,,2013-06-03 13:22:00,
2013-06-03 07:32:00,47.0,29.0,29.96,South,171,7.0,-999.0,50,-99.99,,,-99.99,,2013-06-03 13:32:00,
2013-06-03 07:42:00,47.0,29.0,29.96,South,171,7.0,-999.0,50,-99.99,,,-99.99,,2013-06-03 13:42:00,
2013-06-03 07:52:00,46.0,28.0,29.97,SW,220,5.0,-999.0,49,-99.99,,,-99.99,,2013-06-03 13:52:00,
2013-06-03 08:02:00,45.0,27.0,29.98,SSW,205,5.0,-999.0,50,-99.99,,,-99.99,,2013-06-03 14:02:00,
2013-06-03 08:12:00,45.0,27.0,29.98,SSW,205,5.0,-999.0,50,-99.99,,,-99.99,,2013-06-03 14:12:00,
2013-06-03 08:22:00,44.0,27.0,29.98,SSW,209,3.0,-999.0,50,-99.99,,,-99.99,,2013-06-03 14:22:00,
2013-06-03 08:32:00,44.0,27.0,29.99,South,178,3.0,-999.0,50,-99.99,,,-99.99,,2013-06-03 14:32:00,
2013-06-03 08:42:00,44.0,27.0,29.99,South,178,3.0,-999.0,50,-99.99,,,-99.99,,2013-06-03 14:42:00,
2013-06-03 08:52:00,46.0,28.0,29.99,WSW,238,6.0,-999.0,49,-99.99,,,-99.99,,2013-06-03 14:52:00,
2013-06-03 09:01:00,47.0,29.0,30.00,WSW,242,8.0,-999.0,49,-99.99,,,-99.99,,2013-06-03 15:01:00,
2013-06-03 09:11:00,47.0,29.0,30.00,WSW,242,8.0,-999.0,49,-99.99,,,-99.99,,2013-06-03 15:11:00,
2013-06-03 09:22:00,49.0,29.0,30.00,SSW,213,8.0,-999.0,45,-99.99,,,-99.99,,2013-06-03 15:22:00,
2013-06-03 09:33:00,49.0,29.0,30.00,SSW,192,7.0,-999.0,45,-99.99,,,-99.99,,2013-06-03 15:33:00,
2013-06-03 09:42:00,49.0,29.0,30.00,SSW,192,7.0,-999.0,45,-99.99,,,-99.99,,2013-06-03 15:42:00,
2013-06-03 09:53:00,48.0,28.0,30.00,SSE,152,7.0,-999.0,46,-99.99,,,-99.99,,2013-06-03 15:53:00,
2013-06-03 10:02:00,48.0,25.0,30.00,NW,315,5.0,-999.0,41,-99.99,,,-99.99,,2013-06-03 16:02:00,
2013-06-03 10:12:00,47.0,27.0,30.01,SE,143,3.0,-999.0,45,-99.99,,,-99.99,,2013-06-03 16:12:00,
2013-06-03 10:22:00,47.0,27.0,30.01,SE,143,3.0,-999.0,45,-99.99,,,-99.99,,2013-06-03 16:22:00,
2013-06-03 10:32:00,48.0,27.0,30.01,SSW,201,5.0,-999.0,44,-99.99,,,-99.99,,2013-06-03 16:32:00,
2013-06-03 10:42:00,48.0,28.0,30.01,NW,313,1.0,-999.0,45,-99.99,,,-99.99,,2013-06-03 16:42:00,
2013-06-03 10:53:00,48.0,28.0,30.01,NW,313,1.0,-999.0,45,-99.99,,,-99.99,,2013-06-03 16:53:00,
2013-06-03 11:02:00,48.0,28.0,30.02,South,181,4.0,-999.0,46,-99.99,,,-99.99,,2013-06-03 17:02:00,
2013-06-03 11:12:00,48.0,28.0,30.02,South,181,4.0,-999.0,46,-99.99,,,-99.99,,2013-06-03 17:12:00,
2013-06-03 11:22:00,49.0,28.0,30.02,South,173,1.0,-999.0,44,-99.99,,,-99.99,,2013-06-03 17:22:00,
2013-06-03 11:33:00,49.0,29.0,30.02,South,174,7.0,-999.0,46,-99.99,,,-99.99,,2013-06-03 17:33:00,
2013-06-03 11:42:00,49.0,29.0,30.02,South,174,7.0,-999.0,46,-99.99,,,-99.99,,2013-06-03 17:42:00,
2013-06-03 11:52:00,49.0,28.0,30.02,SSW,211,7.0,-999.0,44,-99.99,,,-99.99,,2013-06-03 17:52:00,
2013-06-03 12:02:00,50.0,29.0,30.03,South,181,6.0,-999.0,44,-99.99,,,-99.99,,2013-06-03 18:02:00,
2013-06-03 12:12:00,51.0,29.0,30.03,SW,217,7.0,-999.0,42,-99.99,,,-99.99,,2013-06-03 18:12:00,
2013-06-03 12:22:00,51.0,29.0,30.03,SW,217,7.0,-999.0,42,-99.99,,,-99.99,,2013-06-03 18:22:00,
2013-06-03 12:32:00,52.0,28.0,30.03,SW,217,9.0,-999.0,40,-99.99,,,-99.99,,2013-06-03 18:32:00,
2013-06-03 12:42:00,52.0,28.0,30.03,SW,217,9.0,-999.0,40,-99.99,,,-99.99,,2013-06-03 18:42:00,
2013-06-03 12:52:00,54.0,31.0,30.03,SW,216,9.0,-999.0,41,-99.99,,,-99.99,,2013-06-03 18:52:00,
2013-06-03 13:03:00,55.0,29.0,30.03,SW,227,9.0,-999.0,36,-99.99,,,-99.99,,2013-06-03 19:03:00,
2013-06-03 13:12:00,55.0,29.0,30.03,SW,227,9.0,-999.0,36,-99.99,,,-99.99,,2013-06-03 19:12:00,
2013-06-03 13:22:00,54.0,30.0,30.03,WSW,242,9.0,-999.0,39,-99.99,,,-99.99,,2013-06-03 19:22:00,
2013-06-03 13:32:00,57.0,29.0,30.03,SSW,213,9.0,-999.0,34,-99.99,,,-99.99,,2013-06-03 19:32:00,
2013-06-03 13:42:00,57.0,29.0,30.03,SSW,213,9.0,-999.0,34,-99.99,,,-99.99,,2013-06-03 19:42:00,
2013-06-03 13:52:00,56.0,31.0,30.04,West,263,9.0,-999.0,38,-99.99,,,-99.99,,2013-06-03 19:52:00,
2013-06-03 14:01:00,58.0,32.0,30.02,SW,225,8.0,-999.0,37,-99.99,,,-99.99,,2013-06-03 20:01:00,
2013-06-03 14:11:00,58.0,32.0,30.02,SW,225,8.0,-999.0,37,-99.99,,,-99.99,,2013-06-03 20:11:00,
2013-06-03 14:22:00,59.0,31.0,30.02,SSE,147,8.0,-999.0,35,-99.99,,,-99.99,,2013-06-03 20:22:00,
2013-06-03 14:32:00,58.0,29.0,30.02,SW,215,9.0,-999.0,33,-99.99,,,-99.99,,2013-06-03 20:32:00,
2013-06-03 14:42:00,58.0,29.0,30.02,SW,215,9.0,-999.0,33,-99.99,,,-99.99,,2013-06-03 20:42:00,
2013-06-03 14:52:00,59.0,31.0,30.03,SW,225,9.0,-999.0,34,-99.99,,,-99.99,,2013-06-03 20:52:00,
2013-06-03 15:01:00,59.0,31.0,30.03,SW,224,8.0,-999.0,35,-99.99,,,-99.99,,2013-06-03 21:01:00,
2013-06-03 15:12:00,59.0,31.0,30.03,SW,224,8.0,-999.0,35,-99.99,,,-99.99,,2013-06-03 21:12:00,
2013-06-03 15:22:00,59.0,30.0,30.03,SW,231,9.0,-999.0,33,-99.99,,,-99.99,,2013-06-03 21:22:00,
2013-06-03 15:32:00,60.0,30.0,30.03,SSW,192,9.0,-999.0,32,-99.99,,,-99.99,,2013-06-03 21:32:00,
2013-06-03 15:43:00,60.0,30.0,30.03,SSW,192,9.0,-999.0,32,-99.99,,,-99.99,,2013-06-03 21:43:00,
2013-06-03 15:53:00,58.0,28.0,30.03,SW,214,11.0,-999.0,32,-99.99,,,-99.99,,2013-06-03 21:53:00,
2013-06-03 16:02:00,60.0,31.0,30.03,SW,228,10.0,-999.0,33,-99.99,,,-99.99,,2013-06-03 22:02:00,
2013-06-03 16:12:00,60.0,31.0,30.03,SW,228,10.0,-999.0,33,-99.99,,,-99.99,,2013-06-03 22:12:00,
2013-06-03 16:22:00,60.0,28.0,30.03,WNW,288,9.0,-999.0,29,-99.99,,,-99.99,,2013-06-03 22:22:00,
2013-06-03 16:32:00,60.0,29.0,30.03,SW,233,11.0,-999.0,31,-99.99,,,-99.99,,2013-06-03 22:32:00,
2013-06-03 16:42:00,60.0,29.0,30.03,SW,233,11.0,-999.0,31,-99.99,,,-99.99,,2013-06-03 22:42:00,
2013-06-03 16:52:00,59.0,30.0,30.03,SW,229,8.0,-999.0,33,-99.99,,,-99.99,,2013-06-03 22:52:00,
2013-06-03 17:02:00,61.0,30.0,30.01,SSW,194,9.0,-999.0,31,-99.99,,,-99.99,,2013-06-03 23:02:00,
2013-06-03 17:12:00,61.0,30.0,30.01,SSW,194,9.0,-999.0,31,-99.99,,,-99.99,,2013-06-03 23:12:00,
2013-06-03 17:22:00,62.0,29.0,30.02,SSE,167,6.0,-999.0,29,-99.99,,,-99.99,,2013-06-03 23:22:00,
2013-06-03 17:32:00,61.0,25.0,30.02,SW,229,7.0,-999.0,25,-99.99,,,-99.99,,2013-06-03 23:32:00,
2013-06-03 17:42:00,61.0,25.0,30.02,SW,229,7.0,-999.0,25,-99.99,,,-99.99,,2013-06-03 23:42:00,
2013-06-03 17:52:00,59.0,25.0,30.03,NW,324,8.0,-999.0,27,-99.99,,,-99.99,,2013-06-03 23:52:00,
2013-06-03 18:02:00,58.0,27.0,30.03,West,263,9.0,-999.0,30,-99.99,,,-99.99,,2013-06-04 00:02:00,
2013-06-03 18:11:00,58.0,27.0,30.03,West,263,9.0,-999.0,30,-99.99,,,-99.99,,2013-06-04 00:11:00,
2013-06-03 18:21:00,57.0,28.0,30.03,NNW,328,8.0,-999.0,33,-99.99,,,-99.99,,2013-06-04 00:21:00,
2013-06-03 18:32:00,58.0,33.0,30.04,North,355,8.0,-999.0,39,-99.99,,,-99.99,,2013-06-04 00:32:00,
2013-06-03 18:42:00,58.0,33.0,30.04,North,355,8.0,-999.0,39,-99.99,,,-99.99,,2013-06-04 00:42:00,
2013-06-03 18:52:00,56.0,31.0,30.04,NNE,13,10.0,-999.0,38,-99.99,,,-99.99,,2013-06-04 00:52:00,
2013-06-03 19:02:00,57.0,32.0,30.05,NE,41,7.0,-999.0,38,-99.99,,,-99.99,,2013-06-04 01:02:00,
2013-06-03 19:12:00,57.0,32.0,30.05,NE,41,7.0,-999.0,38,-99.99,,,-99.99,,2013-06-04 01:12:00,
2013-06-03 19:22:00,57.0,33.0,30.05,NNE,15,6.0,-999.0,40,-99.99,,,-99.99,,2013-06-04 01:22:00,
2013-06-03 19:32:00,57.0,33.0,30.05,ENE,66,3.0,-999.0,40,-99.99,,,-99.99,,2013-06-04 01:32:00,
2013-06-03 19:42:00,57.0,33.0,30.05,ENE,66,3.0,-999.0,40,-99.99,,,-99.99,,2013-06-04 01:42:00,
2013-06-03 19:52:00,57.0,32.0,30.06,North,10,3.0,-999.0,38,-99.99,,,-99.99,,2013-06-04 01:52:00,
2013-06-03 20:02:00,57.0,30.0,30.06,NNE,27,1.0,-999.0,36,-99.99,,,-99.99,,2013-06-04 02:02:00,
2013-06-03 20:12:00,57.0,30.0,30.06,NNE,27,1.0,-999.0,36,-99.99,,,-99.99,,2013-06-04 02:12:00,
2013-06-03 20:21:00,58.0,31.0,30.06,NNE,27,0.0,-999.0,35,-99.99,,,-99.99,,2013-06-04 02:21:00,
2013-06-03 20:32:00,56.0,33.0,30.06,NNW,333,1.0,-999.0,41,-99.99,,,-99.99,,2013-06-04 02:32:00,
2013-06-03 20:42:00,56.0,33.0,30.06,NNW,333,1.0,-999.0,41,-99.99,,,-99.99,,2013-06-04 02:42:00,
2013-06-03 20:52:00,53.0,33.0,30.06,NNW,333,0.0,-999.0,46,-99.99,,,-99.99,,2013-06-04 02:52:00,
2013-06-03 21:01:00,51.0,33.0,30.04,NNW,333,0.0,-999.0,50,-99.99,,,-99.99,,2013-06-04 03:01:00,
2013-06-03 21:11:00,51.0,33.0,30.04,NNW,333,0.0,-999.0,50,-99.99,,,-99.99,,2013-06-04 03:11:00,
2013-06-03 21:22:00,48.0,33.0,30.05,NNW,333,0.0,-999.0,55,-99.99,,,-99.99,,2013-06-04 03:22:00,
2013-06-03 21:32:00,46.0,32.0,30.05,NNW,333,0.0,-999.0,58,-99.99,,,-99.99,,2013-06-04 03:32:00,
2013-06-03 21:43:00,46.0,32.0,30.05,NNW,333,0.0,-999.0,58,-99.99,,,-99.99,,2013-06-04 03:43:00,
2013-06-03 21:53:00,45.0,33.0,30.06,NNW,333,0.0,-999.0,62,-99.99,,,-99.99,,2013-06-04 03:53:00,
2013-06-03 22:02:00,45.0,33.0,30.06,NNW,333,0.0,-999.0,63,-99.99,,,-99.99,,2013-06-04 04:02:00,
2013-06-03 22:13:00,45.0,33.0,30.06,NNW,333,0.0,-999.0,63,-99.99,,,-99.99,,2013-06-04 04:13:00,
2013-06-03 22:23:00,43.0,33.0,30.07,NNW,333,0.0,-999.0,68,-99.99,,,-99.99,,2013-06-04 04:23:00,
2013-06-03 22:33:00,42.0,32.0,30.07,NNW,333,0.0,-999.0,68,-99.99,,,-99.99,,2013-06-04 04:33:00,
2013-06-03 22:42:00,42.0,32.0,30.07,NNW,333,0.0,-999.0,68,-99.99,,,-99.99,,2013-06-04 04:42:00,
2013-06-03 22:53:00,41.0,32.0,30.08,NNW,333,0.0,-999.0,70,-99.99,,,-99.99,,2013-06-04 04:53:00,
2013-06-03 23:02:00,39.0,31.0,30.06,NNW,333,0.0,-999.0,72,-99.99,,,-99.99,,2013-06-04 05:02:00,
2013-06-03 23:12:00,39.0,31.0,30.06,NNW,333,0.0,-999.0,72,-99.99,,,-99.99,,2013-06-04 05:12:00,
2013-06-03 23:22:00,39.0,32.0,30.06,NNW,333,0.0,-999.0,77,-99.99,,,-99.99,,2013-06-04 05:22:00,
2013-06-03 23:32:00,39.0,32.0,30.06,NNW,333,0.0,-999.0,77,-99.99,,,-99.99,,2013-06-04 05:32:00,
2013-06-03 23:42:00,39.0,32.0,30.06,NNW,333,0.0,-999.0,77,-99.99,,,-99.99,,2013-06-04 05:42:00,
2013-06-03 23:52:00,37.0,31.0,30.07,NNW,333,0.0,-999.0,80,-99.99,,,-99.99,,2013-06-04 05:52:00,